Time,TemperatureF,DewpointF,PressureIn,WindDirection,WindDirectionDegrees,WindSpeedMPH,WindSpeedGustMPH,Humidity,HourlyPrecipIn,Conditions,Clouds,dailyrainin,SoftwareType,DateUTC
2013-02-07 00:01:00,65.1,58.0,30.11,North,11,0.0,2.0,78,0.00,,,0.00,weatherlink.com 1.10,2013-02-07 05:01:00,
2013-02-07 00:16:00,64.9,58.0,30.10,North,11,0.0,2.0,78,0.00,,,0.00,weatherlink.com 1.10,2013-02-07 05:16:00,
2013-02-07 00:31:00,64.8,57.0,30.09,ENE,67,0.0,3.0,77,0.00,,,0.00,weatherlink.com 1.10,2013-02-07 05:31:00,
2013-02-07 00:46:00,64.8,57.0,30.10,East,96,0.0,2.0,77,0.00,,,0.00,weatherlink.com 1.10,2013-02-07 05:46:00,
2013-02-07 01:01:00,64.9,57.0,30.10,ESE,110,0.0,2.0,76,0.00,,,0.00,weatherlink.com 1.10,2013-02-07 06:01:00,
2013-02-07 01:16:00,64.7,57.0,30.10,ESE,110,0.0,0.0,77,0.00,,,0.00,weatherlink.com 1.10,2013-02-07 06:16:00,
2013-02-07 01:31:00,64.0,57.0,30.09,ESE,110,0.0,0.0,77,0.00,,,0.00,weatherlink.com 1.10,2013-02-07 06:31:00,
2013-02-07 01:46:00,63.6,55.0,30.09,ESE,110,0.0,0.0,74,0.00,,,0.00,weatherlink.com 1.10,2013-02-07 06:46:00,
2013-02-07 02:01:00,63.8,53.0,30.10,ESE,109,0.0,2.0,69,0.00,,,0.00,weatherlink.com 1.10,2013-02-07 07:01:00,
2013-02-07 02:16:00,64.0,55.0,30.09,ESE,102,0.0,3.0,72,0.00,,,0.00,weatherlink.com 1.10,2013-02-07 07:16:00,
2013-02-07 02:31:00,63.9,54.0,30.09,ESE,111,0.0,3.0,71,0.00,,,0.00,weatherlink.com 1.10,2013-02-07 07:31:00,
2013-02-07 02:46:00,63.8,54.0,30.08,East,94,0.0,3.0,71,0.00,,,0.00,weatherlink.com 1.10,2013-02-07 07:46:00,
2013-02-07 03:01:00,63.5,54.0,30.07,East,94,0.0,2.0,70,0.00,,,0.00,weatherlink.com 1.10,2013-02-07 08:01:00,
2013-02-07 03:16:00,63.4,53.0,30.08,SSE,147,0.0,3.0,69,0.00,,,0.00,weatherlink.com 1.10,2013-02-07 08:16:00,
2013-02-07 03:31:00,63.3,53.0,30.07,SSE,147,0.0,0.0,69,0.00,,,0.00,weatherlink.com 1.10,2013-02-07 08:31:00,
2013-02-07 03:46:00,63.2,52.0,30.07,SSE,147,0.0,0.0,68,0.00,,,0.00,weatherlink.com 1.10,2013-02-07 08:46:00,
2013-02-07 04:01:00,63.4,52.0,30.07,SE,141,0.0,0.0,66,0.00,,,0.00,weatherlink.com 1.10,2013-02-07 09:01:00,
2013-02-07 04:16:00,63.4,52.0,30.07,SE,141,0.0,0.0,67,0.00,,,0.00,weatherlink.com 1.10,2013-02-07 09:16:00,
2013-02-07 04:31:00,63.2,52.0,30.07,SE,135,1.0,2.0,67,0.00,,,0.00,weatherlink.com 1.10,2013-02-07 09:31:00,
2013-02-07 04:47:00,64.3,53.0,30.07,SE,132,5.0,6.0,67,0.00,,,0.00,weatherlink.com 1.10,2013-02-07 09:47:00,
2013-02-07 05:02:00,66.3,60.0,30.07,SE,140,7.0,8.0,80,0.00,,,0.00,weatherlink.com 1.10,2013-02-07 10:02:00,
2013-02-07 05:17:00,66.2,60.0,30.08,SE,132,5.0,6.0,80,0.00,,,0.00,weatherlink.com 1.10,2013-02-07 10:17:00,
2013-02-07 05:32:00,65.9,59.0,30.08,SE,133,5.0,6.0,79,0.00,,,0.00,weatherlink.com 1.10,2013-02-07 10:32:00,
2013-02-07 05:47:00,65.6,59.0,30.08,ESE,123,7.0,7.0,78,0.00,,,0.00,weatherlink.com 1.10,2013-02-07 10:47:00,
2013-02-07 06:02:00,65.6,59.0,30.07,ESE,121,7.0,8.0,79,0.00,,,0.00,weatherlink.com 1.10,2013-02-07 11:02:00,
2013-02-07 06:17:00,65.7,59.0,30.07,ESE,121,7.0,7.0,79,0.00,,,0.00,weatherlink.com 1.10,2013-02-07 11:17:00,
2013-02-07 06:32:00,65.6,59.0,30.08,ESE,122,3.0,5.0,79,0.00,,,0.00,weatherlink.com 1.10,2013-02-07 11:32:00,
2013-02-07 06:47:00,65.4,58.0,30.08,SE,131,2.0,4.0,78,0.00,,,0.00,weatherlink.com 1.10,2013-02-07 11:47:00,
2013-02-07 07:02:00,65.1,58.0,30.07,ESE,121,4.0,4.0,77,0.00,,,0.00,weatherlink.com 1.10,2013-02-07 12:02:00,
2013-02-07 07:17:00,65.1,58.0,30.08,SE,128,3.0,5.0,77,0.00,,,0.00,weatherlink.com 1.10,2013-02-07 12:17:00,
2013-02-07 07:32:00,65.1,58.0,30.08,ESE,115,4.0,4.0,78,0.00,,,0.00,weatherlink.com 1.10,2013-02-07 12:32:00,
2013-02-07 07:47:00,65.6,59.0,30.08,ESE,118,7.0,7.0,79,0.00,,,0.00,weatherlink.com 1.10,2013-02-07 12:47:00,
2013-02-07 08:02:00,66.0,60.0,30.08,SE,128,3.0,6.0,80,0.00,,,0.00,weatherlink.com 1.10,2013-02-07 13:02:00,
2013-02-07 08:17:00,65.9,60.0,30.08,SE,127,3.0,5.0,80,0.00,,,0.00,weatherlink.com 1.10,2013-02-07 13:17:00,
2013-02-07 08:32:00,66.7,60.0,30.08,SE,128,4.0,5.0,80,0.00,,,0.00,weatherlink.com 1.10,2013-02-07 13:32:00,
2013-02-07 08:47:00,67.1,61.0,30.07,SE,128,6.0,8.0,80,0.00,,,0.00,weatherlink.com 1.10,2013-02-07 13:47:00,
2013-02-07 09:02:00,67.9,62.0,30.08,SE,142,6.0,9.0,80,0.00,,,0.00,weatherlink.com 1.10,2013-02-07 14:02:00,
2013-02-07 09:17:00,67.9,62.0,30.08,SSE,153,4.0,9.0,80,0.00,,,0.00,weatherlink.com 1.10,2013-02-07 14:17:00,
2013-02-07 09:32:00,68.7,62.0,30.06,SSE,151,9.0,13.0,79,0.00,,,0.00,weatherlink.com 1.10,2013-02-07 14:32:00,
2013-02-07 09:47:00,69.0,62.0,30.06,SSE,157,5.0,10.0,79,0.00,,,0.00,weatherlink.com 1.10,2013-02-07 14:47:00,
2013-02-07 10:02:00,69.3,63.0,30.08,SSE,165,4.0,6.0,79,0.00,,,0.00,weatherlink.com 1.10,2013-02-07 15:02:00,
2013-02-07 10:17:00,69.8,63.0,30.07,South,189,4.0,7.0,78,0.00,,,0.00,weatherlink.com 1.10,2013-02-07 15:17:00,
2013-02-07 10:32:00,70.6,62.0,30.07,South,171,6.0,11.0,75,0.00,,,0.00,weatherlink.com 1.10,2013-02-07 15:32:00,
2013-02-07 10:47:00,71.3,63.0,30.05,SSE,155,13.0,17.0,75,0.00,,,0.00,weatherlink.com 1.10,2013-02-07 15:47:00,
2013-02-07 11:18:00,71.4,63.0,30.04,SSE,163,11.0,15.0,75,0.00,,,0.00,weatherlink.com 1.10,2013-02-07 16:18:00,
2013-02-07 11:33:00,71.2,63.0,30.04,SSE,167,7.0,15.0,75,0.00,,,0.00,weatherlink.com 1.10,2013-02-07 16:33:00,
2013-02-07 11:48:00,71.5,63.0,30.02,SSE,153,9.0,14.0,74,0.00,,,0.00,weatherlink.com 1.10,2013-02-07 16:48:00,
2013-02-07 12:03:00,72.0,62.0,30.02,SSE,157,7.0,14.0,71,0.00,,,0.00,weatherlink.com 1.10,2013-02-07 17:03:00,
2013-02-07 12:18:00,72.1,63.0,30.01,SE,142,13.0,16.0,72,0.00,,,0.00,weatherlink.com 1.10,2013-02-07 17:18:00,
2013-02-07 12:33:00,72.8,63.0,30.02,South,180,8.0,15.0,71,0.00,,,0.00,weatherlink.com 1.10,2013-02-07 17:33:00,
2013-02-07 12:48:00,73.0,63.0,30.02,SSW,194,8.0,14.0,70,0.00,,,0.00,weatherlink.com 1.10,2013-02-07 17:48:00,
2013-02-07 13:03:00,73.3,63.0,29.99,SSE,155,9.0,16.0,70,0.00,,,0.00,weatherlink.com 1.10,2013-02-07 18:03:00,
2013-02-07 13:18:00,73.7,62.0,29.96,SE,145,15.0,20.0,68,0.00,,,0.00,weatherlink.com 1.10,2013-02-07 18:18:00,
2013-02-07 13:33:00,73.7,62.0,29.96,SSE,153,15.0,19.0,68,0.00,,,0.00,weatherlink.com 1.10,2013-02-07 18:33:00,
2013-02-07 13:48:00,74.0,63.0,29.95,SSE,154,11.0,16.0,68,0.00,,,0.00,weatherlink.com 1.10,2013-02-07 18:48:00,
2013-02-07 14:03:00,74.2,63.0,29.95,SSE,152,12.0,15.0,67,0.00,,,0.00,weatherlink.com 1.10,2013-02-07 19:03:00,
2013-02-07 14:18:00,74.3,63.0,29.93,SSE,147,14.0,18.0,67,0.00,,,0.00,weatherlink.com 1.10,2013-02-07 19:18:00,
2013-02-07 14:33:00,74.8,63.0,29.92,SSE,157,13.0,18.0,67,0.00,,,0.00,weatherlink.com 1.10,2013-02-07 19:33:00,
2013-02-07 14:48:00,74.9,63.0,29.92,SSW,192,7.0,14.0,66,0.00,,,0.00,weatherlink.com 1.10,2013-02-07 19:48:00,
2013-02-07 15:03:00,75.5,63.0,29.91,SSE,155,10.0,17.0,65,0.00,,,0.00,weatherlink.com 1.10,2013-02-07 20:03:00,
2013-02-07 15:18:00,75.7,63.0,29.91,SSE,157,13.0,16.0,65,0.00,,,0.00,weatherlink.com 1.10,2013-02-07 20:18:00,
2013-02-07 15:33:00,75.4,63.0,29.91,South,172,5.0,13.0,65,0.00,,,0.00,weatherlink.com 1.10,2013-02-07 20:33:00,
2013-02-07 15:48:00,75.1,63.0,29.91,SSE,163,4.0,9.0,66,0.00,,,0.00,weatherlink.com 1.10,2013-02-07 20:48:00,
2013-02-07 16:03:00,75.0,63.0,29.90,SSE,155,5.0,8.0,67,0.00,,,0.00,weatherlink.com 1.10,2013-02-07 21:03:00,
2013-02-07 16:18:00,76.4,63.0,29.90,South,179,1.0,13.0,63,0.00,,,0.00,weatherlink.com 1.10,2013-02-07 21:18:00,
2013-02-07 16:33:00,76.5,63.0,29.90,SSE,167,4.0,13.0,63,0.00,,,0.00,weatherlink.com 1.10,2013-02-07 21:33:00,
2013-02-07 16:48:00,76.2,63.0,29.90,SSW,195,7.0,13.0,63,0.00,,,0.00,weatherlink.com 1.10,2013-02-07 21:48:00,
2013-02-07 17:03:00,75.7,63.0,29.89,SSE,166,5.0,12.0,64,0.00,,,0.00,weatherlink.com 1.10,2013-02-07 22:03:00,
2013-02-07 17:18:00,75.9,63.0,29.88,SSE,150,10.0,13.0,64,0.00,,,0.00,weatherlink.com 1.10,2013-02-07 22:18:00,
2013-02-07 17:33:00,76.1,63.0,29.87,SE,144,8.0,14.0,63,0.00,,,0.00,weatherlink.com 1.10,2013-02-07 22:33:00,
2013-02-07 17:48:00,75.7,63.0,29.88,SSE,163,8.0,13.0,64,0.00,,,0.00,weatherlink.com 1.10,2013-02-07 22:48:00,
2013-02-07 18:03:00,75.3,63.0,29.89,South,170,5.0,8.0,65,0.00,,,0.00,weatherlink.com 1.10,2013-02-07 23:03:00,
2013-02-07 18:18:00,72.8,64.0,29.92,WNW,296,1.0,9.0,75,0.00,,,0.00,weatherlink.com 1.10,2013-02-07 23:18:00,
2013-02-07 18:33:00,71.3,64.0,29.91,WNW,290,0.0,2.0,77,0.00,,,0.00,weatherlink.com 1.10,2013-02-07 23:33:00,
2013-02-07 18:48:00,70.3,64.0,29.93,WNW,286,3.0,5.0,79,0.00,,,0.00,weatherlink.com 1.10,2013-02-07 23:48:00,
2013-02-07 19:03:00,70.4,63.0,29.91,WSW,250,2.0,5.0,78,0.00,,,0.00,weatherlink.com 1.10,2013-02-08 00:03:00,
2013-02-07 19:18:00,70.3,63.0,29.90,SW,220,0.0,2.0,78,0.00,,,0.00,weatherlink.com 1.10,2013-02-08 00:18:00,
2013-02-07 19:33:00,71.0,63.0,29.91,SW,232,7.0,8.0,75,0.00,,,0.00,weatherlink.com 1.10,2013-02-08 00:33:00,
2013-02-07 19:48:00,71.7,63.0,29.89,SW,219,10.0,10.0,73,0.00,,,0.00,weatherlink.com 1.10,2013-02-08 00:48:00,
2013-02-07 20:03:00,72.4,63.0,29.91,SW,221,15.0,15.0,71,0.00,,,0.00,weatherlink.com 1.10,2013-02-08 01:03:00,
2013-02-07 20:18:00,72.8,63.0,29.89,SSW,206,13.0,15.0,71,0.00,,,0.00,weatherlink.com 1.10,2013-02-08 01:18:00,
2013-02-07 20:33:00,71.6,63.0,29.89,SSW,210,7.0,11.0,75,0.00,,,0.00,weatherlink.com 1.10,2013-02-08 01:33:00,
2013-02-07 20:48:00,71.5,63.0,29.89,SSW,207,7.0,9.0,74,0.00,,,0.00,weatherlink.com 1.10,2013-02-08 01:48:00,
2013-02-07 21:03:00,71.3,63.0,29.90,SW,214,8.0,13.0,75,0.00,,,0.00,weatherlink.com 1.10,2013-02-08 02:03:00,
2013-02-07 21:18:00,71.3,63.0,29.90,SSW,206,9.0,15.0,76,0.00,,,0.00,weatherlink.com 1.10,2013-02-08 02:18:00,
2013-02-07 21:33:00,70.8,63.0,29.89,SW,222,11.0,14.0,77,0.00,,,0.00,weatherlink.com 1.10,2013-02-08 02:33:00,
2013-02-07 21:48:00,71.0,64.0,29.90,SW,225,13.0,19.0,78,0.00,,,0.00,weatherlink.com 1.10,2013-02-08 02:48:00,
2013-02-07 22:18:00,69.8,63.0,29.89,SW,234,8.0,12.0,79,0.00,,,0.00,weatherlink.com 1.10,2013-02-08 03:18:00,
2013-02-07 22:33:00,69.8,63.0,29.89,SW,232,10.0,12.0,79,0.00,,,0.00,weatherlink.com 1.10,2013-02-08 03:33:00,
2013-02-07 22:48:00,69.1,62.0,29.90,SW,231,9.0,11.0,79,0.00,,,0.00,weatherlink.com 1.10,2013-02-08 03:48:00,
2013-02-07 23:03:00,68.8,62.0,29.90,SW,231,11.0,13.0,78,0.00,,,0.00,weatherlink.com 1.10,2013-02-08 04:03:00,
2013-02-07 23:18:00,68.3,61.0,29.90,WSW,246,8.0,10.0,77,0.00,,,0.00,weatherlink.com 1.10,2013-02-08 04:18:00,
2013-02-07 23:33:00,68.3,61.0,29.90,WSW,245,9.0,10.0,77,0.00,,,0.00,weatherlink.com 1.10,2013-02-08 04:33:00,
2013-02-07 23:48:00,68.3,61.0,29.89,WSW,248,9.0,11.0,77,0.00,,,0.00,weatherlink.com 1.10,2013-02-08 04:48:00,